Terug naar catalogus

STARLINK-36195

ActiefCommunicatieVLEO
NORAD 67124·PAYLOAD·🇺🇸 United States

Gelanceerd Dec 15, 2025 vanaf Cape Canaveral Space Force Station

Loading…

Volgende Passages (komende 24 uur)

TLE

VersSource: CelesTrak SupGP

Epoch: Sep 15, 2026, 02:36 UTC

1 67124C 25299Y   26258.10881944 -.00047908  00000+0 -17353-2 0  2583
2 67124  43.0000 178.7855 0001300 273.1898 346.2298 15.27601471    11

Volg STARLINK-36195 in realtime met AllMySat

Download on the App Store